Regional Weather Roundup
Issued by NWS

Home | Current Version | Previous Version | Graphics & Text | Print | Product List | Glossary Off
Versions: 1 2 3 4 5 6 7 8 9 10 11 12 13 14 15 16 17 18 19 20 21 22 23 24 25 26 27 28 29 30 31 32 33 34 35 36 37 38 39 40 41 42 43 44 45 46 47 48 49 50

000
ASUS43 KTOP 080059
RWRKS

WEATHER ROUNDUP FOR KANSAS
NATIONAL WEATHER SERVICE GOODLAND KS
700 PM CST SUN FEB 07 2016

NOTE:  "FAIR" INDICATES FEW OR NO CLOUDS BELOW 12,000 FEET WITH NO
SIGNIFICANT WEATHER AND/OR OBSTRUCTIONS TO VISIBILITY.

KSZ001>006-013>018-027>032-041>047-080200-
NORTHWEST KANSAS

CITY           SKY/WX    TMP DP  RH WIND       PRES   REMARKS
GOODLAND       CLOUDY    33  17  51 NW28G36   30.29R WCI  20
HAYS           CLEAR     37  16  41 NW23      30.21R WCI  26
HILL CITY      CLEAR     35  21  56 NW14G23   30.22R WCI  26
RUSSELL        CLEAR     37  22  54 NW23      30.17S WCI  26
$$

KSZ061>065-074>080-084>089-080200-
SOUTHWEST KANSAS

CITY           SKY/WX    TMP DP  RH WIND       PRES   REMARKS
DODGE CITY     CLOUDY    38  12  34 NW24G33   30.28R WCI  27
ELKHART          N/A     35  14  42 N10         N/A  WCI  27
GARDEN CITY    CLOUDY    38  16  40 NW17      30.30R WCI  28
GREAT BEND     CLEAR     36  19  51 NW17      30.22R WCI  25
LIBERAL        CLEAR     37  12  35 N17       30.34R WCI  28
$$

KSZ066>073-081>083-090>101-080200-
SOUTHEAST KANSAS

CITY           SKY/WX    TMP DP  RH WIND       PRES   REMARKS
CHANUTE        PTCLDY    45  13  27 NW12      30.10R
COFFEYVILLE    PTCLDY    48  12  23 NW13      30.12R
HUTCHINSON     CLEAR     41  20  43 NW17      30.18R
MEDICINE LODGE   N/A     44  16  32 NW18G28   30.22R
NEWTON         CLEAR     41  19  42 NW16      30.17R
PARSONS        CLEAR     44  15  31 NW9       30.11R
WICHITA INTL   PTCLDY    44  22  41 NW17      30.17R
WICHITA JABRA  CLEAR     42  20  41 NW15      30.16R
WINFIELD       PTCLDY    45  20  36 NW18      30.18R
$$

KSZ007>012-019>026-033>040-048>060-102>105-080200-
NORTHEAST KANSAS

CITY           SKY/WX    TMP DP  RH WIND       PRES   REMARKS
CONCORDIA      CLEAR     36  23  59 W13       30.11R WCI  27
EMPORIA        MOCLDY    44  18  35 NW15      30.09R
LAWRENCE       CLOUDY    43  21  41 NW36G47   30.06R
MANHATTAN      PTCLDY    42  20  41 VRB5      30.10S
OLATHE IND     CLOUDY    43  22  43 NW29G37   30.04R
OLATHE EXE     CLOUDY    43  21  41 NW20G30   30.02R
SALINA         CLEAR     43  21  41 NW18      30.14R
TOPEKA BILLARD LGT RAIN  43  21  41 NW20G43   30.09R
TOPEKA FORBES  CLOUDY    44  22  41 NW28G49   30.08R
$$



USA.gov is the U.S. government's official web portal to all federal, state and local government web resources and services.